Time,TemperatureF,DewpointF,PressureIn,WindDirection,WindDirectionDegrees,WindSpeedMPH,WindSpeedGustMPH,Humidity,HourlyPrecipIn,Conditions,Clouds,dailyrainin,SolarRadiationWatts/m^2,SoftwareType,DateUTC
2017-04-30 00:04:00,39.6,38.3,28.83,North,0,10.0,16.0,95,0.01,,,0.13,0.0,meteohub,2017-04-30 07:04:00,
2017-04-30 00:09:00,39.7,38.5,28.83,North,0,10.0,16.0,95,0.01,,,0.00,0.0,meteohub,2017-04-30 07:09:00,
2017-04-30 00:14:00,39.9,38.7,28.83,North,0,4.0,16.0,95,0.01,,,0.00,0.0,meteohub,2017-04-30 07:14:00,
2017-04-30 00:19:00,39.7,38.5,28.83,North,0,8.0,16.0,95,0.00,,,0.00,0.0,meteohub,2017-04-30 07:19:00,
2017-04-30 00:24:00,39.9,38.7,28.83,North,0,10.0,16.0,95,0.00,,,0.00,0.0,meteohub,2017-04-30 07:24:00,
2017-04-30 00:29:00,39.7,38.5,28.83,North,0,1.0,16.0,95,0.00,,,0.00,0.0,meteohub,2017-04-30 07:29:00,
2017-04-30 00:34:00,39.7,38.5,28.83,North,0,9.0,14.0,95,0.00,,,0.00,0.0,meteohub,2017-04-30 07:34:00,
2017-04-30 00:39:00,39.7,38.5,28.84,North,0,13.0,17.0,95,0.00,,,0.00,0.0,meteohub,2017-04-30 07:39:00,
2017-04-30 00:44:00,39.7,38.7,28.84,North,0,14.0,17.0,96,0.00,,,0.00,0.0,meteohub,2017-04-30 07:44:00,
2017-04-30 00:49:00,39.7,38.7,28.84,North,0,3.0,17.0,96,0.00,,,0.00,0.0,meteohub,2017-04-30 07:49:00,
2017-04-30 00:54:00,39.7,38.7,28.84,North,0,10.0,17.0,96,0.00,,,0.00,0.0,meteohub,2017-04-30 07:54:00,
2017-04-30 00:59:00,39.9,38.8,28.84,North,0,4.0,17.0,96,0.00,,,0.00,0.0,meteohub,2017-04-30 07:59:00,
2017-04-30 01:04:00,39.7,38.7,28.84,North,0,2.0,12.0,96,0.00,,,0.00,0.0,meteohub,2017-04-30 08:04:00,
2017-04-30 01:09:00,39.7,38.7,28.84,North,0,5.0,12.0,96,0.00,,,0.00,0.0,meteohub,2017-04-30 08:09:00,
2017-04-30 01:14:00,39.9,38.7,28.83,North,0,1.0,13.0,95,0.01,,,0.00,0.0,meteohub,2017-04-30 08:14:00,
2017-04-30 01:19:00,40.1,39.0,28.83,North,0,2.0,13.0,96,0.01,,,0.01,0.0,meteohub,2017-04-30 08:19:00,
2017-04-30 01:24:00,40.3,39.0,28.83,East,94,0.0,13.0,95,0.01,,,0.01,0.0,meteohub,2017-04-30 08:24:00,
2017-04-30 01:29:00,40.1,38.8,28.83,North,0,8.0,11.0,95,0.01,,,0.01,0.0,meteohub,2017-04-30 08:29:00,
2017-04-30 01:34:00,39.9,38.8,28.83,North,0,4.0,11.0,96,0.01,,,0.01,0.0,meteohub,2017-04-30 08:34:00,
2017-04-30 01:39:00,40.1,39.0,28.83,North,0,5.0,11.0,96,0.01,,,0.01,0.0,meteohub,2017-04-30 08:39:00,
2017-04-30 01:44:00,40.1,39.0,28.83,North,0,4.0,10.0,96,0.01,,,0.01,0.0,meteohub,2017-04-30 08:44:00,
2017-04-30 01:49:00,40.1,39.0,28.84,North,0,2.0,10.0,96,0.01,,,0.01,0.0,meteohub,2017-04-30 08:49:00,
2017-04-30 01:54:00,40.3,39.2,28.84,SW,233,0.0,9.0,96,0.01,,,0.01,0.0,meteohub,2017-04-30 08:54:00,
2017-04-30 01:59:00,40.3,39.2,28.84,North,0,0.0,9.0,96,0.01,,,0.01,0.0,meteohub,2017-04-30 08:59:00,
2017-04-30 02:04:00,40.3,39.2,28.84,North,0,0.0,8.0,96,0.01,,,0.01,0.0,meteohub,2017-04-30 09:04:00,
2017-04-30 02:09:00,40.3,39.2,28.84,North,0,0.0,2.0,96,0.02,,,0.02,0.0,meteohub,2017-04-30 09:09:00,
2017-04-30 02:14:00,40.3,39.2,28.84,North,0,0.0,2.0,96,0.01,,,0.02,0.0,meteohub,2017-04-30 09:14:00,
2017-04-30 02:19:00,40.3,39.2,28.84,North,0,0.0,2.0,96,0.01,,,0.02,0.0,meteohub,2017-04-30 09:19:00,
2017-04-30 02:24:00,40.3,39.2,28.84,North,0,0.0,0.0,96,0.01,,,0.02,0.0,meteohub,2017-04-30 09:24:00,
2017-04-30 02:29:00,40.3,39.2,28.84,North,0,0.0,0.0,96,0.01,,,0.02,0.0,meteohub,2017-04-30 09:29:00,
2017-04-30 02:34:00,40.3,39.2,28.84,North,0,0.0,0.0,96,0.01,,,0.02,0.0,meteohub,2017-04-30 09:34:00,
2017-04-30 02:39:00,40.3,39.2,28.84,North,0,0.0,4.0,96,0.01,,,0.02,0.0,meteohub,2017-04-30 09:39:00,
2017-04-30 02:44:00,40.5,39.4,28.83,NNE,30,0.0,4.0,96,0.01,,,0.02,0.0,meteohub,2017-04-30 09:44:00,
2017-04-30 02:49:00,40.5,39.4,28.83,NNE,28,0.0,4.0,96,0.02,,,0.03,0.0,meteohub,2017-04-30 09:49:00,
2017-04-30 02:54:00,40.5,39.4,28.83,North,0,0.0,0.0,96,0.02,,,0.03,0.0,meteohub,2017-04-30 09:54:00,
2017-04-30 02:59:00,40.5,39.4,28.83,North,0,0.0,2.0,96,0.02,,,0.03,0.0,meteohub,2017-04-30 09:59:00,
2017-04-30 03:04:00,40.5,39.4,28.83,North,0,0.0,3.0,96,0.01,,,0.03,0.0,meteohub,2017-04-30 10:04:00,
2017-04-30 03:09:00,40.5,39.4,28.83,North,0,2.0,3.0,96,0.01,,,0.03,0.0,meteohub,2017-04-30 10:09:00,
2017-04-30 03:14:00,40.6,39.6,28.82,North,0,6.0,6.0,96,0.01,,,0.03,0.0,meteohub,2017-04-30 10:14:00,
2017-04-30 03:19:00,41.0,39.9,28.82,North,0,0.0,12.0,96,0.01,,,0.03,0.0,meteohub,2017-04-30 10:19:00,
2017-04-30 03:24:00,41.2,40.1,28.83,North,0,1.0,12.0,96,0.01,,,0.03,0.0,meteohub,2017-04-30 10:24:00,
2017-04-30 03:29:00,41.2,40.1,28.83,North,0,2.0,8.0,96,0.01,,,0.03,0.0,meteohub,2017-04-30 10:29:00,
2017-04-30 03:34:00,41.4,40.3,28.83,ESE,123,1.0,13.0,96,0.01,,,0.03,0.0,meteohub,2017-04-30 10:34:00,
2017-04-30 03:39:00,41.2,40.1,28.83,North,0,10.0,14.0,96,0.01,,,0.03,0.0,meteohub,2017-04-30 10:39:00,
2017-04-30 03:44:00,41.2,40.1,28.82,North,0,6.0,14.0,96,0.01,,,0.03,0.0,meteohub,2017-04-30 10:44:00,
2017-04-30 03:49:00,41.2,40.1,28.83,North,0,2.0,17.0,96,0.01,,,0.04,0.0,meteohub,2017-04-30 10:49:00,
2017-04-30 03:54:00,41.2,40.1,28.83,North,0,0.0,17.0,96,0.01,,,0.04,0.0,meteohub,2017-04-30 10:54:00,
2017-04-30 03:59:00,41.2,40.1,28.83,North,0,13.0,13.0,96,0.01,,,0.04,0.0,meteohub,2017-04-30 10:59:00,
2017-04-30 04:04:00,41.4,40.3,28.82,North,0,8.0,16.0,96,0.01,,,0.04,0.0,meteohub,2017-04-30 11:04:00,
2017-04-30 04:09:00,41.4,40.3,28.82,North,0,6.0,16.0,96,0.01,,,0.04,0.0,meteohub,2017-04-30 11:09:00,
2017-04-30 04:14:00,41.4,40.3,28.82,North,0,12.0,16.0,96,0.01,,,0.04,0.0,meteohub,2017-04-30 11:14:00,
2017-04-30 04:19:00,41.4,40.1,28.82,North,0,10.0,21.0,95,0.01,,,0.04,0.0,meteohub,2017-04-30 11:19:00,
2017-04-30 04:24:00,41.4,40.1,28.82,North,0,13.0,21.0,95,0.01,,,0.04,0.0,meteohub,2017-04-30 11:24:00,
2017-04-30 04:29:00,41.4,40.3,28.82,North,0,14.0,21.0,96,0.01,,,0.04,0.0,meteohub,2017-04-30 11:29:00,
2017-04-30 04:34:00,41.5,40.5,28.82,North,0,4.0,19.0,96,0.01,,,0.04,0.0,meteohub,2017-04-30 11:34:00,
2017-04-30 04:39:00,41.5,40.5,28.82,North,0,6.0,17.0,96,0.01,,,0.04,0.0,meteohub,2017-04-30 11:39:00,
2017-04-30 04:44:00,41.5,40.3,28.82,North,0,2.0,18.0,95,0.00,,,0.04,0.0,meteohub,2017-04-30 11:44:00,
2017-04-30 04:49:00,41.7,40.5,28.83,North,0,6.0,18.0,95,0.00,,,0.04,0.0,meteohub,2017-04-30 11:49:00,
2017-04-30 04:54:00,41.7,40.5,28.82,North,0,8.0,18.0,95,0.00,,,0.04,0.0,meteohub,2017-04-30 11:54:00,
2017-04-30 04:59:00,41.7,40.5,28.82,ESE,111,8.0,17.0,95,0.00,,,0.04,0.0,meteohub,2017-04-30 11:59:00,
2017-04-30 05:04:00,41.7,40.5,28.82,North,0,21.0,21.0,95,0.00,,,0.04,0.0,meteohub,2017-04-30 12:04:00,
2017-04-30 05:09:00,41.7,40.5,28.82,North,0,12.0,22.0,95,0.00,,,0.04,0.0,meteohub,2017-04-30 12:09:00,
2017-04-30 05:14:00,41.7,40.5,28.82,North,0,9.0,22.0,95,0.00,,,0.04,0.0,meteohub,2017-04-30 12:14:00,
2017-04-30 05:19:00,41.7,40.5,28.82,North,0,17.0,22.0,95,0.00,,,0.04,0.0,meteohub,2017-04-30 12:19:00,
2017-04-30 05:24:00,41.7,40.5,28.82,North,0,0.0,22.0,95,0.00,,,0.04,0.0,meteohub,2017-04-30 12:24:00,
2017-04-30 05:29:00,41.7,40.5,28.82,North,0,16.0,21.0,95,0.00,,,0.04,0.0,meteohub,2017-04-30 12:29:00,
2017-04-30 05:34:00,41.9,40.6,28.82,North,0,10.0,21.0,95,0.00,,,0.04,0.0,meteohub,2017-04-30 12:34:00,
2017-04-30 05:39:00,41.7,40.5,28.82,North,0,15.0,22.0,95,0.00,,,0.04,0.0,meteohub,2017-04-30 12:39:00,
2017-04-30 05:44:00,41.9,40.3,28.82,North,0,17.0,22.0,94,0.00,,,0.05,0.0,meteohub,2017-04-30 12:44:00,
2017-04-30 05:49:00,42.1,40.3,28.83,North,0,9.0,24.0,93,0.01,,,0.05,0.0,meteohub,2017-04-30 12:49:00,
2017-04-30 05:54:00,42.3,40.5,28.83,North,0,16.0,24.0,93,0.01,,,0.05,0.0,meteohub,2017-04-30 12:54:00,
2017-04-30 05:59:00,42.3,40.1,28.84,North,0,11.0,24.0,92,0.01,,,0.05,5.0,meteohub,2017-04-30 12:59:00,
2017-04-30 06:04:00,42.3,40.1,28.83,North,0,15.0,24.0,92,0.01,,,0.05,7.0,meteohub,2017-04-30 13:04:00,
2017-04-30 06:09:00,42.3,39.7,28.83,North,0,15.0,26.0,91,0.01,,,0.05,9.0,meteohub,2017-04-30 13:09:00,
2017-04-30 06:14:00,42.3,39.7,28.83,North,0,9.0,26.0,91,0.01,,,0.05,11.0,meteohub,2017-04-30 13:14:00,
2017-04-30 06:19:00,42.4,39.7,28.84,North,0,5.0,26.0,90,0.01,,,0.05,12.0,meteohub,2017-04-30 13:19:00,
2017-04-30 06:24:00,42.6,39.6,28.84,North,0,11.0,26.0,89,0.01,,,0.05,18.0,meteohub,2017-04-30 13:24:00,
2017-04-30 06:29:00,42.6,39.6,28.84,North,0,12.0,21.0,89,0.01,,,0.05,21.0,meteohub,2017-04-30 13:29:00,
2017-04-30 06:34:00,43.2,39.6,28.84,North,0,17.0,21.0,87,0.01,,,0.05,21.0,meteohub,2017-04-30 13:34:00,
2017-04-30 06:39:00,43.2,39.0,28.84,North,0,10.0,22.0,85,0.00,,,0.05,35.0,meteohub,2017-04-30 13:39:00,
2017-04-30 06:44:00,43.3,39.2,28.84,North,0,15.0,22.0,85,0.00,,,0.05,26.0,meteohub,2017-04-30 13:44:00,
2017-04-30 06:49:00,43.3,38.8,28.84,North,0,17.0,28.0,84,0.00,,,0.05,33.0,meteohub,2017-04-30 13:49:00,
2017-04-30 06:54:00,43.3,38.5,28.84,North,0,23.0,28.0,83,0.00,,,0.05,30.0,meteohub,2017-04-30 13:54:00,
2017-04-30 06:59:00,43.5,38.7,28.85,North,0,24.0,33.0,83,0.00,,,0.05,30.0,meteohub,2017-04-30 13:59:00,
2017-04-30 07:04:00,43.3,38.8,28.86,North,0,19.0,33.0,84,0.00,,,0.05,39.0,meteohub,2017-04-30 14:04:00,
2017-04-30 07:09:00,43.3,38.8,28.86,North,0,15.0,36.0,84,0.00,,,0.05,67.0,meteohub,2017-04-30 14:09:00,
2017-04-30 07:14:00,43.3,38.5,28.87,North,0,8.0,36.0,83,0.00,,,0.05,69.0,meteohub,2017-04-30 14:14:00,
2017-04-30 07:19:00,43.3,38.5,28.87,North,0,3.0,25.0,83,0.00,,,0.05,49.0,meteohub,2017-04-30 14:19:00,
2017-04-30 07:24:00,43.2,38.7,28.87,North,0,8.0,25.0,84,0.00,,,0.05,74.0,meteohub,2017-04-30 14:24:00,
2017-04-30 07:29:00,43.2,38.3,28.87,North,0,14.0,21.0,83,0.00,,,0.05,77.0,meteohub,2017-04-30 14:29:00,
2017-04-30 07:34:00,43.3,38.3,28.88,North,0,3.0,21.0,82,0.00,,,0.05,83.0,meteohub,2017-04-30 14:34:00,
2017-04-30 07:39:00,43.3,38.3,28.88,North,0,6.0,27.0,82,0.00,,,0.05,70.0,meteohub,2017-04-30 14:39:00,
2017-04-30 07:44:00,43.3,38.3,28.89,North,0,4.0,27.0,82,0.00,,,0.05,74.0,meteohub,2017-04-30 14:44:00,
2017-04-30 07:49:00,43.3,37.6,28.88,North,0,9.0,27.0,80,0.00,,,0.05,69.0,meteohub,2017-04-30 14:49:00,
2017-04-30 07:54:00,43.3,38.3,28.90,North,0,10.0,27.0,82,0.00,,,0.05,109.0,meteohub,2017-04-30 14:54:00,
2017-04-30 07:59:00,43.3,37.9,28.90,North,0,10.0,23.0,81,0.00,,,0.05,105.0,meteohub,2017-04-30 14:59:00,
2017-04-30 08:04:00,43.3,37.6,28.90,SE,136,10.0,26.0,80,0.00,,,0.05,130.0,meteohub,2017-04-30 15:04:00,
2017-04-30 08:09:00,43.3,37.6,28.90,North,0,9.0,26.0,80,0.00,,,0.05,70.0,meteohub,2017-04-30 15:09:00,
2017-04-30 08:14:00,43.2,37.8,28.90,SE,127,2.0,26.0,81,0.00,,,0.05,74.0,meteohub,2017-04-30 15:14:00,
2017-04-30 08:19:00,43.0,37.6,28.90,North,0,9.0,20.0,81,0.00,,,0.05,98.0,meteohub,2017-04-30 15:19:00,
2017-04-30 08:24:00,43.0,37.6,28.90,North,0,2.0,20.0,81,0.00,,,0.05,123.0,meteohub,2017-04-30 15:24:00,
2017-04-30 08:29:00,43.0,37.6,28.91,North,0,13.0,20.0,81,0.00,,,0.05,123.0,meteohub,2017-04-30 15:29:00,
2017-04-30 08:34:00,42.6,37.2,28.91,North,0,5.0,17.0,81,0.00,,,0.05,151.0,meteohub,2017-04-30 15:34:00,
2017-04-30 08:39:00,42.6,37.2,28.91,North,0,15.0,17.0,81,0.00,,,0.05,144.0,meteohub,2017-04-30 15:39:00,
2017-04-30 08:44:00,42.4,37.0,28.91,North,0,3.0,18.0,81,0.00,,,0.05,162.0,meteohub,2017-04-30 15:44:00,
2017-04-30 08:49:00,42.4,37.4,28.91,North,0,12.0,18.0,82,0.00,,,0.05,134.0,meteohub,2017-04-30 15:49:00,
2017-04-30 08:54:00,42.4,37.4,28.92,North,0,10.0,18.0,82,0.00,,,0.05,158.0,meteohub,2017-04-30 15:54:00,
2017-04-30 08:59:00,42.3,36.9,28.92,North,0,15.0,17.0,81,0.00,,,0.05,181.0,meteohub,2017-04-30 15:59:00,
2017-04-30 09:04:00,42.3,37.2,28.92,SE,136,0.0,17.0,82,0.00,,,0.05,135.0,meteohub,2017-04-30 16:04:00,
2017-04-30 09:09:00,42.3,36.9,28.93,North,0,2.0,17.0,81,0.00,,,0.05,178.0,meteohub,2017-04-30 16:09:00,
2017-04-30 09:14:00,42.3,36.9,28.93,North,0,8.0,17.0,81,0.00,,,0.05,188.0,meteohub,2017-04-30 16:14:00,
2017-04-30 09:19:00,42.3,36.5,28.93,North,0,8.0,16.0,80,0.00,,,0.05,195.0,meteohub,2017-04-30 16:19:00,
2017-04-30 09:24:00,42.3,36.9,28.93,North,0,13.0,16.0,81,0.00,,,0.05,206.0,meteohub,2017-04-30 16:24:00,
2017-04-30 09:29:00,42.3,36.9,28.93,North,0,5.0,16.0,81,0.00,,,0.05,209.0,meteohub,2017-04-30 16:29:00,
2017-04-30 09:34:00,42.4,37.0,28.93,North,0,9.0,16.0,81,0.00,,,0.05,221.0,meteohub,2017-04-30 16:34:00,
2017-04-30 09:39:00,42.6,37.2,28.93,North,0,13.0,18.0,81,0.00,,,0.05,200.0,meteohub,2017-04-30 16:39:00,
2017-04-30 09:44:00,42.6,36.5,28.93,North,0,12.0,18.0,79,0.00,,,0.05,165.0,meteohub,2017-04-30 16:44:00,
2017-04-30 09:49:00,42.6,36.5,28.94,North,0,3.0,18.0,79,0.00,,,0.05,202.0,meteohub,2017-04-30 16:49:00,
2017-04-30 09:54:00,43.0,36.7,28.94,North,0,16.0,18.0,78,0.00,,,0.05,285.0,meteohub,2017-04-30 16:54:00,